Regional Weather Roundup
Issued by NWS Bismarck, ND

Home | Current Version | Previous Version | Text Only | Print | Product List | Glossary On
Versions: 1 2 3 4 5 6 7 8 9 10 11 12 13 14 15 16 17 18 19 20 21 22 23 24 25 26 27 28 29 30 31 32 33 34 35 36 37 38 39 40 41 42 43 44 45 46 47 48 49 50
000
ASUS43 KBIS 041102
RWRBIS

NWR BROADCAST TEXT
NATIONAL WEATHER SERVICE BISMARCK ND
600 AM CDT FRI SEP 04 2015

NOTE: "FAIR" INDICATES FEW OR NO CLOUDS BELOW 12,000 FEET WITH NO
SIGNIFICANT WEATHER AND/OR OBSTRUCTIONS TO VISIBILITY.


CITY           SKY/WX    TMP DP  RH WIND       PRES   REMARKS
WILLISTON      LGT RAIN  61  48  62 N17G24    29.79F
MINOT          CLOUDY    69  63  81 NW12      29.75S
MINOT AFB      NOT AVBL
BISMARCK         N/A     71  70  96 CALM      29.71R
DICKINSON      CLOUDY    65  57  75 NE18      29.75R
GARRISON         N/A     67  63  87 NW9       29.78R
HETTINGER ARPT CLOUDY    67  55  65 NW8       29.78R
JAMESTOWN      MOCLDY    73  71  93 SE8       29.73S FOG
HAZEN          LGT RAIN  66  64  94 NW6       29.76F
OAKES            N/A     72  72 100 E9        29.74S FOG
STANLEY        CLOUDY    64  63  94 N16G23    29.81F
$$

CITY           SKY/WX    TMP DP  RH WIND       PRES   REMARKS
GRAND FORKS    CLOUDY    73  71  93 SE9       29.77S
GRAND FORKS AF CLOUDY    73  72  94 SE10      29.77F
DEVILS LAKE    CLOUDY    73  66  78 SE12      29.74F
FARGO          PTCLDY    74  71  91 SE7       29.76F
CAVALIER       CLOUDY    75  73  94 SE10      29.78R
GRAFTON        CLOUDY    73  73 100 SE8       29.79S
GWINNER        CLOUDY    75  75 100 SE10      29.75S
LANGDON        CLOUDY    75  73  94 S8        29.79F
$$

CITY           SKY/WX    TMP DP  RH WIND       PRES   REMARKS
ABERDEEN       MOCLDY    74  70  87 S6        29.73R
MOBRIDGE       CLOUDY    71  71 100 SE3       29.70R
BUFFALO          N/A     64  59  83 NE3       29.74R
RAPID CITY     MOCLDY    64  54  69 N6        29.78S
GLASGOW        MOCLDY    57  38  48 NW12      29.92R
SIDNEY         CLOUDY    63  46  55 N14         N/A
WOLF POINT     MOCLDY    59  45  59 N10       29.83R
GLENDIVE       CLOUDY    63  48  59 N5        29.79R
MILES CITY     CLOUDY    60  47  61 NW16      29.85S
BAKER          CLOUDY    65  60  84 E15       29.77F
$$

CITY           SKY/WX    TMP DP  RH WIND       PRES   REMARKS
BILLINGS       MOCLDY    52  46  80 W8        29.93R
GREAT FALLS    CLOUDY    49  47  93 E12       29.94S
$$



USA.gov is the U.S. government's official web portal to all federal, state and local government web resources and services.